History for DAOO

Oran, DZ

Daily Weekly Monthly
Daily Summary for Thursday, March 21, 2019
  Actual: Average: Record:
Temperature
Mean Temperature: 50 °F / 10 °C - :  
Max Temperature: 59 °F / 15 °C 68 °F / 20 °C - ()
Min Temperature: 42 °F / 6 °C 49 °F / 9 °C - ()
Degree Days
Heating Degree Days: 14    
Moisture
Dew Point 45 °F / 7 °C    
Average Humidity 82    
Maximum Humidity 100    
Minimum Humidity 56    
Precipitation
Precipitation 0.02 in / 0.6 cm 0.06 in / 1.4 cm - ()
Sea Level Pressure
Sea Level Pressure 30.23 in / 1023.66 hPa   
Wind
Wind Speed 4 mph / 7 km/h ()  
Max Wind Speed 12 mph / 18 km/h   
Max Gust Speed -   
Visibility 6.2 miles / 10.0 kilometers   
Events Rain   

Key: T is trace of precipitation, MM is missing value
Source: Averaged Metar Reports

Graphs

Observations

History Graphs Observations

Obs Go Here...

Features

Weather Apps

WunderRadio

Weather Underground Apps
Check out our wide variety of mobile and setup applications.

Weather Underground Applications

Top of Page

© Copyright 2019
The Weather Company, LLC
Time(CET)TemperatureDew PointHumidity Sea Level Pressure Visibility Wind DirectionWind SpeedGust SpeedPrecipitationEvents Conditions
12:00 AM 46.4 °F / 8.0 °C 44.6 °F / 7.0 °C 93% 30.12 in / 1020 hPa 6.2 miles / 10.0 kilometers NW 2.3 mph / 3.7 km/h - N/A   Mostly Cloudy
12:30 AM 46.4 °F / 8.0 °C 44.6 °F / 7.0 °C 93% 30.12 in / 1020 hPa 6.2 miles / 10.0 kilometers South 4.6 mph / 7.4 km/h - N/A Rain Light Rain
1:00 AM 46 °F / 8 °C 44 °F / 7 °C 92% 30.28 in / 1025 hPa 6 miles / 10 kilometers East 2.3 mph / 3.7 km/h - - Rain Light Rain
1:00 AM 46.4 °F / 8.0 °C 44.6 °F / 7.0 °C 93% 30.27 in / 1025 hPa 6.2 miles / 10.0 kilometers East 2.3 mph / 3.7 km/h - N/A   Scattered Clouds
1:30 AM 46.4 °F / 8.0 °C 42.8 °F / 6.0 °C 87% 30.24 in / 1024 hPa 6.2 miles / 10.0 kilometers Calm Calm - N/A   Scattered Clouds
2:00 AM 44.6 °F / 7.0 °C 44.6 °F / 7.0 °C 100% 30.24 in / 1024 hPa 6.2 miles / 10.0 kilometers Calm Calm - N/A   Scattered Clouds
3:00 AM 46.4 °F / 8.0 °C 44.6 °F / 7.0 °C 93% 30.24 in / 1024 hPa 6.2 miles / 10.0 kilometers North 2.3 mph / 3.7 km/h - N/A   Mostly Cloudy
3:30 AM 46.4 °F / 8.0 °C 44.6 °F / 7.0 °C 93% 30.21 in / 1023 hPa 6.2 miles / 10.0 kilometers SE 5.8 mph / 9.3 km/h - N/A   Scattered Clouds
4:00 AM 44 °F / 7 °C 43 °F / 6 °C 95% 30.23 in / 1024 hPa 6 miles / 10 kilometers ESE 2.3 mph / 3.7 km/h - -   Mostly Cloudy
4:00 AM 44.6 °F / 7.0 °C 42.8 °F / 6.0 °C 93% 30.21 in / 1023 hPa 6.2 miles / 10.0 kilometers ESE 2.3 mph / 3.7 km/h - N/A   Mostly Cloudy
4:30 AM 44.6 °F / 7.0 °C 42.8 °F / 6.0 °C 93% 30.21 in / 1023 hPa 6.2 miles / 10.0 kilometers South 2.3 mph / 3.7 km/h - N/A   Mostly Cloudy
5:00 AM 42.8 °F / 6.0 °C 41.0 °F / 5.0 °C 93% 30.21 in / 1023 hPa 6.2 miles / 10.0 kilometers ESE 4.6 mph / 7.4 km/h - N/A   Mostly Cloudy
5:30 AM 42.8 °F / 6.0 °C 41.0 °F / 5.0 °C 93% 30.21 in / 1023 hPa 6.2 miles / 10.0 kilometers ESE 4.6 mph / 7.4 km/h - N/A   Mostly Cloudy
7:00 AM 42.8 °F / 6.0 °C 41.0 °F / 5.0 °C 93% 30.21 in / 1023 hPa 6.2 miles / 10.0 kilometers South 2.3 mph / 3.7 km/h - N/A Rain Light Rain
7:30 AM 42.8 °F / 6.0 °C 41.0 °F / 5.0 °C 93% 30.24 in / 1024 hPa 6.2 miles / 10.0 kilometers South 2.3 mph / 3.7 km/h - N/A Rain Light Rain
8:30 AM 42.8 °F / 6.0 °C 41.0 °F / 5.0 °C 93% 30.24 in / 1024 hPa 6.2 miles / 10.0 kilometers SSE 2.3 mph / 3.7 km/h - N/A   Mostly Cloudy
9:00 AM 46.4 °F / 8.0 °C 44.6 °F / 7.0 °C 93% 30.24 in / 1024 hPa 6.2 miles / 10.0 kilometers ESE 2.3 mph / 3.7 km/h - N/A   Mostly Cloudy
9:30 AM 46.4 °F / 8.0 °C 44.6 °F / 7.0 °C 93% 30.27 in / 1025 hPa 6.2 miles / 10.0 kilometers SE 2.3 mph / 3.7 km/h - N/A Rain Light Rain
10:00 AM 47 °F / 9 °C 45 °F / 7 °C 89% 30.28 in / 1025 hPa 6 miles / 10 kilometers SSW 4.6 mph / 7.4 km/h - - Rain Rain
10:00 AM 48.2 °F / 9.0 °C 44.6 °F / 7.0 °C 87% 30.27 in / 1025 hPa 6.2 miles / 10.0 kilometers SSW 4.6 mph / 7.4 km/h - N/A Rain Rain
11:00 AM 48.2 °F / 9.0 °C 46.4 °F / 8.0 °C 93% 30.27 in / 1025 hPa 6.2 miles / 10.0 kilometers South 8.1 mph / 13.0 km/h - N/A   Mostly Cloudy
11:30 AM 48.2 °F / 9.0 °C 46.4 °F / 8.0 °C 93% 30.27 in / 1025 hPa 6.2 miles / 10.0 kilometers South 8.1 mph / 13.0 km/h - N/A   Mostly Cloudy
12:00 PM 48.2 °F / 9.0 °C 46.4 °F / 8.0 °C 93% 30.27 in / 1025 hPa 6.2 miles / 10.0 kilometers South 8.1 mph / 13.0 km/h - N/A   Mostly Cloudy
12:30 PM 48.2 °F / 9.0 °C 46.4 °F / 8.0 °C 93% 30.27 in / 1025 hPa 6.2 miles / 10.0 kilometers South 8.1 mph / 13.0 km/h - N/A   Mostly Cloudy
1:00 PM 53 °F / 12 °C 48 °F / 9 °C 78% 30.26 in / 1025 hPa 6 miles / 10 kilometers SSE 8.1 mph / 13.0 km/h - -   Partly Cloudy
1:00 PM 53.6 °F / 12.0 °C 48.2 °F / 9.0 °C 82% 30.24 in / 1024 hPa 6.2 miles / 10.0 kilometers SSE 8.1 mph / 13.0 km/h - N/A   Mostly Cloudy
1:30 PM 50.0 °F / 10.0 °C 44.6 °F / 7.0 °C 82% 30.24 in / 1024 hPa 6.2 miles / 10.0 kilometers SE 4.6 mph / 7.4 km/h - N/A   Mostly Cloudy
2:00 PM 51.8 °F / 11.0 °C 46.4 °F / 8.0 °C 82% 30.24 in / 1024 hPa 6.2 miles / 10.0 kilometers Calm Calm - N/A   Mostly Cloudy
3:00 PM 55.4 °F / 13.0 °C 48.2 °F / 9.0 °C 77% 30.24 in / 1024 hPa 6.2 miles / 10.0 kilometers NNW 4.6 mph / 7.4 km/h - N/A   Mostly Cloudy
4:00 PM 57 °F / 14 °C 46 °F / 8 °C 56% 30.20 in / 1022 hPa 6 miles / 10 kilometers North 9.2 mph / 14.8 km/h - -   Partly Cloudy
4:00 PM 57.2 °F / 14.0 °C 46.4 °F / 8.0 °C 67% 30.18 in / 1022 hPa 6.2 miles / 10.0 kilometers North 9.2 mph / 14.8 km/h - N/A   Mostly Cloudy
4:30 PM 57.2 °F / 14.0 °C 46.4 °F / 8.0 °C 67% 30.18 in / 1022 hPa 6.2 miles / 10.0 kilometers North 9.2 mph / 14.8 km/h - N/A   Mostly Cloudy
5:00 PM 57.2 °F / 14.0 °C 42.8 °F / 6.0 °C 59% 30.18 in / 1022 hPa 6.2 miles / 10.0 kilometers North 10.4 mph / 16.7 km/h - N/A   Mostly Cloudy
5:30 PM 57.2 °F / 14.0 °C 42.8 °F / 6.0 °C 59% 30.18 in / 1022 hPa 6.2 miles / 10.0 kilometers North 10.4 mph / 16.7 km/h - N/A   Mostly Cloudy
6:00 PM 57.2 °F / 14.0 °C 42.8 °F / 6.0 °C 59% 30.21 in / 1023 hPa 6.2 miles / 10.0 kilometers North 11.5 mph / 18.5 km/h - N/A   Mostly Cloudy
6:30 PM 55.4 °F / 13.0 °C 44.6 °F / 7.0 °C 67% 30.21 in / 1023 hPa 6.2 miles / 10.0 kilometers North 11.5 mph / 18.5 km/h - N/A   Mostly Cloudy
7:00 PM 55 °F / 13 °C 45 °F / 7 °C 59% 30.23 in / 1024 hPa 6 miles / 10 kilometers North 9.2 mph / 14.8 km/h - -   Partly Cloudy
7:00 PM 55.4 °F / 13.0 °C 44.6 °F / 7.0 °C 67% 30.21 in / 1023 hPa 6.2 miles / 10.0 kilometers North 9.2 mph / 14.8 km/h - N/A   Mostly Cloudy
7:30 PM 55.4 °F / 13.0 °C 44.6 °F / 7.0 °C 67% 30.21 in / 1023 hPa 6.2 miles / 10.0 kilometers North 9.2 mph / 14.8 km/h - N/A   Mostly Cloudy
8:00 PM 53.6 °F / 12.0 °C 46.4 °F / 8.0 °C 77% 30.21 in / 1023 hPa 6.2 miles / 10.0 kilometers North 4.6 mph / 7.4 km/h - N/A   Mostly Cloudy
8:30 PM 53.6 °F / 12.0 °C 46.4 °F / 8.0 °C 77% 30.24 in / 1024 hPa 6.2 miles / 10.0 kilometers NNW 4.6 mph / 7.4 km/h - N/A   Mostly Cloudy
9:00 PM 53.6 °F / 12.0 °C 46.4 °F / 8.0 °C 77% 30.24 in / 1024 hPa 6.2 miles / 10.0 kilometers North 5.8 mph / 9.3 km/h - N/A   Mostly Cloudy
9:30 PM 53.6 °F / 12.0 °C 46.4 °F / 8.0 °C 77% 30.24 in / 1024 hPa 6.2 miles / 10.0 kilometers NNW 4.6 mph / 7.4 km/h - N/A   Mostly Cloudy
10:00 PM 54 °F / 12 °C 45 °F / 7 °C 64% 30.27 in / 1025 hPa 6 miles / 10 kilometers North 9.2 mph / 14.8 km/h - -   Mostly Cloudy
10:00 PM 55.4 °F / 13.0 °C 44.6 °F / 7.0 °C 67% 30.24 in / 1024 hPa 6.2 miles / 10.0 kilometers North 9.2 mph / 14.8 km/h - N/A   Mostly Cloudy
11:00 PM 55.4 °F / 13.0 °C 46.4 °F / 8.0 °C 72% 30.27 in / 1025 hPa 6.2 miles / 10.0 kilometers North 2.3 mph / 3.7 km/h - N/A   Mostly Cloudy
11:30 PM 55.4 °F / 13.0 °C 46.4 °F / 8.0 °C 72% 30.27 in / 1025 hPa 6.2 miles / 10.0 kilometers North 2.3 mph / 3.7 km/h - N/A   Mostly Cloudy